Weather Roundup
Issued by NWS

Home | Current Version | Previous Version | Graphics & Text | Print | Product List | Glossary Off
Versions: 1 2 3 4 5 6 7 8 9 10 11 12 13 14 15 16 17 18 19 20 21 22 23 24 25 26 27 28 29 30 31 32 33 34 35 36 37 38 39 40 41 42 43 44 45 46 47 48 49 50

987
NZUS93 KARX 180659
HRRWXR

CURRENT HOURLY OBSERVATIONS ACROSS
MUCH OF THE UPPER MISSISSIPPI VALLEY
NATIONAL WEATHER SERVICE LA CROSSE WI
100 AM CST WED JAN 18 2017


...SOUTHEAST MINNESOTA...


CITY           SKY/WX    TMP DP  RH WIND       PRES   REMARKS
ROCHESTER      CLOUDY    27  27 100 SW15      30.00F FOG     WCI  15
ROCHESTER/MAYO CLOUDY    30  30 100 SW6       30.00F WCI  24
WINONA         CLOUDY    34  32  93 SW3       30.03S
AUSTIN         CLOUDY    28  27  93 SW9       30.01S FOG     WCI  20
ALBERT LEA     CLOUDY    28  28 100 SW5       30.01S FOG     WCI  23
DODGE CENTER   CLOUDY    27  27 100 SW5       29.99S FOG     WCI  21
PRESTON        CLOUDY    28  27  96 SW10      30.01F WCI  19
OWATONNA       CLOUDY    28  27  93 S8        30.00S FOG     WCI  20
FARIBAULT      CLOUDY    27  27 100 S8        29.99S WCI  18
$$

...ELSEWHERE IN MINNESOTA...


CITY           SKY/WX    TMP DP  RH WIND       PRES   REMARKS
MINNEAPOLIS    CLOUDY    30  26  85 S7        29.98S WCI  23
INTNL FALLS    CLOUDY    28  19  69 S8G17     29.65F WCI  20
DULUTH         CLOUDY    23  21  92 SW14      29.82F WCI  11
RED WING       CLOUDY    30  28  93 SW8       30.01R WCI  23
REDWOOD FALLS  CLOUDY    24  20  84 S10       29.92F WCI  14
MANKATO        CLOUDY    25  24  96 S9        29.99S FOG     WCI  15
WORTHINGTON    CLOUDY    27  25  92 S14       29.95F WCI  16
FAIRMONT       CLOUDY    27  26  96 S14       29.99F FOG     WCI  16
$$

...SOUTHWEST WISCONSIN...


CITY           SKY/WX    TMP DP  RH WIND       PRES   REMARKS
LA CROSSE      CLOUDY    35  32  88 W6        30.03R WCI  30
PRAIRIE DU CHI CLOUDY    33  32  96 SW8       30.04F WCI  26
BOSCOBEL       CLOUDY    35  33  92 W8        30.04S WCI  29
LONE ROCK      NOT AVBL
PLATTEVILLE    CLOUDY    34  34 100 W9        30.03S VSB 3/4 WCI  26
FORT MC COY    FOG       32  32 100 W7        30.01F VSB 1/2 WCI  25
MAUSTON-NEW LI CLOUDY    33  33  99 W7        29.99S FOG     WCI  27
VIROQUA        CLOUDY    32  32 100 W9        29.99S VSB<1/4 WCI  24
WIS DELLS      FOG       33  32  99 W8        29.99S VSB 1/2 WCI  25
$$

...ELSEWHERE IN WISCONSIN...


CITY           SKY/WX    TMP DP  RH WIND       PRES   REMARKS
MILWAUKEE      CLOUDY    36  33  89 W7        29.98S WCI  30
MADISON        CLOUDY    34  33  96 VRB3      30.01R FOG
GREEN BAY      FOG       35  34  96 SW5       29.95S VSB 1/2 WCI  31
EAU CLAIRE     CLOUDY    30  30 100 SW8       29.98S FOG     WCI  23
BLACK RVR FLS  FOG       32  32 100 SW5       30.00S VSB 1/4 WCI  28
MEDFORD        FOG       27  26  99 SW5       29.94R VSB 1/4 WCI  21
WAUSAU         FOG       28  27  96 CALM      29.93S VSB 3/4
WIS RAPIDS     FOG       32  32 100 W9        29.99R VSB 1/2 WCI  24
MARSHFIELD     FOG       29  28  96 W9        29.95R VSB 1/4 WCI  20
RICE LAKE      CLOUDY    31  31  99 S6        29.96F FOG     WCI  25
$$

...NORTHEAST IOWA...


CITY           SKY/WX    TMP DP  RH WIND       PRES   REMARKS
WATERLOO       FOG       31  30  96 SW10      30.07S VSB 1   WCI  22
DUBUQUE        CLOUDY    32  32 100 W10       30.05S FOG     WCI  24
DECORAH        FOG       30  30 100 W8        30.02S VSB 1/2 WCI  23
MASON CITY     CLOUDY    28  27  96 SW10      30.04F WCI  19
CHARLES CITY   FOG       30  30 100 W10       30.05S VSB 1/4 WCI  21
OELWEIN        FOG       32  32 100 W14       30.06R VSB 1/4 WCI  22
$$

...ELSEWHERE IN IOWA...


CITY           SKY/WX    TMP DP  RH WIND       PRES   REMARKS
DES MOINES     CLOUDY    32  29  88 SW13      30.11F WCI  22
IOWA CITY      CLOUDY    35  33  92 SW5       30.12S FOG     WCI  31
FORT DODGE     CLOUDY    28  27  93 MISG      30.07S
MARSHALLTOWN   FOG       31  31 100 SW16      30.08S VSB 1   WCI  20
CEDAR RAPIDS   CLOUDY    32  32 100 SW5       30.08S FOG     WCI  27
$$

...NORTHERN ILLINOIS...


CITY           SKY/WX    TMP DP  RH WIND       PRES   REMARKS
CHICAGO-OHARE  CLOUDY    35  33  92 W8        30.02R FOG     WCI  29
CHICAGO-MIDWAY CLOUDY    34  32  92 W7        30.03R FOG     WCI  28
MOLINE         CLOUDY    35  32  88 W9        30.10R WCI  28
ROCKFORD       CLOUDY    35  33  92 W9        30.05S FOG     WCI  28
PEORIA         CLOUDY    35  33  92 W9        30.13R WCI  28
$$

NOTE: "FAIR" INDICATES FEW OR NO CLOUDS BELOW 12,000 FEET WITH NO
SIGNIFICANT WEATHER AND/OR OBSTRUCTIONS TO VISIBILITY. WIND
SPEEDS ARE IN MILES-PER-HOUR.




USA.gov is the U.S. government's official web portal to all federal, state and local government web resources and services.